Weather History for Three Rivers, MI

Change the Weather History Date:

Friday, September 21, 2012

  Actual Average Record
Temperature  
Mean Temperature 57 °F -  
Max Temperature 69 °F 70 °F 87 °F (1959)
Min Temperature 45 °F 49 °F 28 °F (1962)
Degree Days  
Heating Degree Days 8    
Growing Degree Days 7 (Base 50)    
Moisture  
Dew Point 45 °F    
Average Humidity 78    
Maximum Humidity 94    
Minimum Humidity 30    
Precipitation  
Precipitation 0.00 in - - ()
Sea Level Pressure  
Sea Level Pressure 29.90 in    
Wind  
Wind Speed 3 mph (SW)    
Max Wind Speed 14 mph    
Max Gust Speed 22 mph    
Visibility 9 miles    
Events Rain    
Averages and records for this station are not official NWS values.
T = Trace of Precipitation, MM = Missing Value Source: NWS Daily Summary

Daily Weather History Graph

Daily Weather History Graph

Search for Another Location

Airport:

Trip Planner

Search our weather history database for the weather conditions in past years. The results will help you decide how hot, cold, wet, or windy it might be!

Date:

Astronomy

Sep. 21, 2012 Rise Set
Actual Time 7:29 AM EDT 7:40 PM EDT
Civil Twilight 7:01 AM EDT 8:08 PM EDT
Nautical Twilight 6:28 AM EDT 8:40 PM EDT
Astronomical Twilight 5:55 AM EDT 9:14 PM EDT
Moon 1:55 PM EDT (9/21) 11:34 PM EDT (9/21)
Length of Visible Light 13h 06m
Length of Day
12h 11m
Waxing Crescent, 37% of the Moon is Illuminated
Sep 21
Waxing Crescent
Sep 22
First Quarter
Sep 29
Full
Oct 8
Last Quarter
Oct 15
New

Hourly Weather History & Observations

Time (EDT) Temp. Windchill Dew Point Humidity Pressure Visibility Wind Dir Wind Speed Gust Speed Precip Events Conditions
12:34 AM 46.6 °F - 43.7 °F 90% 29.92 in 10.0 mi SSW 3.5 mph - N/A   Clear
12:54 AM 48.0 °F - 44.2 °F 87% 29.92 in 10.0 mi Calm Calm - N/A   Clear
1:14 AM 46.4 °F - 43.0 °F 88% 29.92 in 10.0 mi Calm Calm - N/A   Clear
1:34 AM 46.2 °F - 43.3 °F 90% 29.92 in 10.0 mi Calm Calm - N/A   Clear
1:54 AM 45.9 °F - 43.2 °F 90% 29.92 in 10.0 mi Calm Calm - N/A   Clear
2:13 AM 46.8 °F - 44.1 °F 90% 29.93 in 10.0 mi Calm Calm - N/A   Clear
2:34 AM 46.4 °F - 44.1 °F 92% 29.93 in 10.0 mi Calm Calm - N/A   Clear
2:54 AM 45.3 °F - 42.8 °F 91% 29.93 in 10.0 mi Calm Calm - N/A   Clear
3:13 AM 46.4 °F - 44.2 °F 92% 29.93 in 10.0 mi Calm Calm - N/A   Clear
3:34 AM 45.7 °F 44.4 °F 43.7 °F 93% 29.93 in 10.0 mi South 3.5 mph - N/A   Clear
3:54 AM 45.3 °F - 43.0 °F 92% 29.93 in 10.0 mi Calm Calm - N/A   Clear
4:14 AM 46.2 °F 45.0 °F 44.1 °F 92% 29.93 in 10.0 mi South 3.5 mph - N/A   Clear
4:34 AM 46.0 °F 44.8 °F 43.7 °F 92% 29.92 in 10.0 mi South 3.5 mph - N/A   Clear
4:54 AM 45.5 °F 43.2 °F 43.3 °F 92% 29.93 in 10.0 mi SSW 4.6 mph - N/A   Clear
5:14 AM 45.3 °F 44.0 °F 43.0 °F 92% 29.93 in 10.0 mi SSW 3.5 mph - N/A   Clear
5:34 AM 45.7 °F 44.4 °F 43.7 °F 93% 29.93 in 10.0 mi SSW 3.5 mph - N/A   Clear
5:54 AM 45.9 °F - 43.9 °F 93% 29.93 in 10.0 mi Calm Calm - N/A   Clear
6:14 AM 45.9 °F - 43.7 °F 92% 29.93 in 10.0 mi Calm Calm - N/A   Clear
6:34 AM 45.9 °F 44.6 °F 43.7 °F 92% 29.93 in 10.0 mi South 3.5 mph - N/A   Clear
6:54 AM 45.0 °F 42.6 °F 43.0 °F 93% 29.93 in 10.0 mi South 4.6 mph - N/A   Clear
7:14 AM 45.5 °F 43.2 °F 43.3 °F 92% 29.93 in 10.0 mi South 4.6 mph - N/A   Clear
7:34 AM 45.7 °F 43.4 °F 43.3 °F 92% 29.93 in 10.0 mi SSW 4.6 mph - N/A   Clear
7:54 AM 45.1 °F 42.8 °F 42.4 °F 90% 29.93 in 10.0 mi SSW 4.6 mph - N/A   Clear
8:34 AM 47.7 °F - 44.6 °F 89% 29.94 in 10.0 mi South 4.6 mph - N/A   Clear
8:54 AM 50.0 °F - 45.5 °F 85% 29.94 in 10.0 mi SSW 3.5 mph - N/A   Clear
9:14 AM 51.8 °F - 45.1 °F 78% 29.94 in 10.0 mi SSW 4.6 mph - N/A   Clear
9:34 AM 54.5 °F - 45.9 °F 73% 29.93 in 10.0 mi South 4.6 mph - N/A   Clear
9:54 AM 56.1 °F - 46.6 °F 70% 29.94 in 10.0 mi SSW 6.9 mph - N/A   Clear
10:13 AM 58.5 °F - 46.8 °F 65% 29.94 in 10.0 mi SSW 5.8 mph - N/A   Clear
10:34 AM 59.4 °F - 45.7 °F 61% 29.94 in 10.0 mi SSW 6.9 mph - N/A   Clear
10:54 AM 61.3 °F - 46.6 °F 58% 29.94 in 10.0 mi SSW 8.1 mph - N/A   Clear
11:14 AM 62.2 °F - 43.5 °F 50% 29.94 in 10.0 mi SW 10.4 mph - N/A   Clear
11:34 AM 63.3 °F - 41.5 °F 45% 29.93 in 10.0 mi SW 6.9 mph - N/A   Scattered Clouds
11:53 AM 65.5 °F - 39.6 °F 39% 29.93 in 10.0 mi SSW 9.2 mph - N/A   Scattered Clouds
12:14 PM 66.4 °F - 38.3 °F 36% 29.92 in 10.0 mi SW 11.5 mph 17.3 mph N/A   Scattered Clouds
12:33 PM 67.3 °F - 38.5 °F 35% 29.92 in 10.0 mi WSW 10.4 mph 18.4 mph N/A   Scattered Clouds
12:54 PM 67.3 °F - 37.6 °F 34% 29.91 in 10.0 mi SW 9.2 mph 17.3 mph N/A   Clear
1:14 PM 67.5 °F - 36.9 °F 32% 29.90 in 10.0 mi SW 10.4 mph 18.4 mph N/A   Clear
1:34 PM 69.8 °F - 37.0 °F 30% 29.90 in 10.0 mi West 13.8 mph 21.9 mph N/A   Mostly Cloudy
1:54 PM 69.1 °F - 36.0 °F 30% 29.89 in 10.0 mi WSW 13.8 mph 17.3 mph N/A   Mostly Cloudy
2:14 PM 67.5 °F - 35.2 °F 30% 29.88 in 10.0 mi West 12.7 mph 17.3 mph N/A   Overcast
2:34 PM 66.6 °F - 36.1 °F 33% 29.88 in 10.0 mi WSW 10.4 mph 16.1 mph N/A   Overcast
2:54 PM 65.5 °F - 36.7 °F 35% 29.89 in 10.0 mi SW 6.9 mph - N/A   Overcast
3:14 PM 65.3 °F - 36.7 °F 35% 29.88 in 10.0 mi West 6.9 mph - N/A   Overcast
3:54 PM 61.9 °F - 44.4 °F 53% 29.88 in 10.0 mi WNW 9.2 mph - N/A Rain Light Rain
4:14 PM 57.7 °F - 50.0 °F 75% 29.89 in 7.0 mi NW 8.1 mph - N/A Rain Rain
4:34 PM 57.0 °F - 51.6 °F 82% 29.88 in 7.0 mi NNW 3.5 mph - N/A Rain Rain
4:54 PM 55.6 °F - 51.1 °F 85% 29.87 in 7.0 mi Calm Calm - N/A Rain Rain
5:13 PM 55.2 °F - 50.9 °F 85% 29.87 in 7.0 mi Calm Calm - N/A Rain Rain
5:34 PM 54.9 °F - 51.3 °F 88% 29.86 in 5.0 mi Calm Calm - N/A Rain Rain
5:54 PM 54.5 °F - 50.9 °F 88% 29.86 in 7.0 mi Calm Calm - N/A Rain Rain
6:13 PM 54.0 °F - 51.1 °F 90% 29.85 in 7.0 mi Calm Calm - N/A Rain Light Rain
6:34 PM 53.8 °F - 51.3 °F 91% 29.85 in 10.0 mi Calm Calm - N/A Rain Light Rain
6:54 PM 53.6 °F - 51.1 °F 91% 29.85 in 10.0 mi Calm Calm - N/A   Light Drizzle
7:14 PM 53.1 °F - 50.5 °F 91% 29.85 in 10.0 mi North 4.6 mph - N/A   Overcast
7:34 PM 53.1 °F - 50.9 °F 92% 29.86 in 10.0 mi Calm Calm - N/A Rain Light Rain
7:54 PM 53.6 °F - 51.4 °F 92% 29.87 in 10.0 mi Calm Calm - N/A Rain Light Rain
8:14 PM 53.8 °F - 51.6 °F 92% 29.88 in 7.0 mi Calm Calm - N/A Rain Rain
8:34 PM 53.1 °F - 51.1 °F 93% 29.87 in 5.0 mi Calm Calm - N/A Rain Rain
8:54 PM 52.7 °F - 50.9 °F 94% 29.85 in 7.0 mi North 3.5 mph - N/A Rain Light Rain
9:14 PM 52.3 °F - 50.5 °F 94% 29.85 in 10.0 mi North 4.6 mph - N/A Rain Light Rain
9:34 PM 52.2 °F - 50.2 °F 93% 29.84 in 10.0 mi North 4.6 mph - N/A Rain Light Rain
9:54 PM 52.0 °F - 50.0 °F 93% 29.84 in 10.0 mi North 3.5 mph - N/A   Overcast
10:14 PM 52.0 °F - 50.0 °F 93% 29.83 in 10.0 mi Calm Calm - N/A   Light Drizzle
10:34 PM 51.8 °F - 50.0 °F 94% 29.82 in 10.0 mi North 3.5 mph - N/A   Light Drizzle
10:54 PM 51.8 °F - 50.0 °F 94% 29.82 in 10.0 mi Calm Calm - N/A Rain Light Rain
11:14 PM 52.5 °F - 50.2 °F 92% 29.82 in 10.0 mi Calm Calm - N/A Rain Light Rain
11:33 PM 52.0 °F - 50.0 °F 93% 29.81 in 7.0 mi Calm Calm - N/A   Overcast
11:54 PM 51.8 °F - 50.0 °F 94% 29.80 in 7.0 mi Calm Calm - N/A   Overcast